• în Republica Moldova
  • Lista ţărilor
  • Pe 7 zile
  • Temperatura apei
  • Hartă satelitară
  • Meteo pe hartă
  • Widget-uri
  • user-avatar
    Intrare

    Meteo pe oră la Benguela

    Astăzi, 23 Octombrie, Luni

    Timp Temperatura Precipitaţii Vânt Presiune Umiditate
    00:00 +29°C° 0,5 mm 3 m/s 758 mmHg 72%
    01:00 +29°C° 0 mm 3 m/s 759 mmHg 74%
    02:00 +29°C° 0,2 mm 3 m/s 758 mmHg 74%
    03:00 +29°C° 0,2 mm 2 m/s 758 mmHg 74%
    04:00 +29°C° 0,2 mm 2 m/s 758 mmHg 75%
    05:00 +29°C° 0,3 mm 2 m/s 758 mmHg 72%
    06:00 +30°C° 0,3 mm 2 m/s 758 mmHg 70%
    07:00 +30°C° 0 mm 2 m/s 759 mmHg 68%
    08:00 +32°C° 0 mm 2 m/s 758 mmHg 61%
    09:00 +35°C° 0 mm 2 m/s 758 mmHg 54%
    10:00 +37°C° 0 mm 3 m/s 758 mmHg 47%
    11:00 +38°C° 0 mm 3 m/s 757 mmHg 47%
    12:00 +38°C° 0 mm 4 m/s 757 mmHg 46%
    13:00 +38°C° 0 mm 4 m/s 756 mmHg 46%
    14:00 +37°C° 0,8 mm 4 m/s 756 mmHg 50%
    15:00 +35°C° 0,8 mm 4 m/s 756 mmHg 55%
    16:00 +34°C° 0,8 mm 4 m/s 756 mmHg 60%
    17:00 +33°C° 1,1 mm 3 m/s 756 mmHg 64%
    18:00 +31°C° 1,1 mm 3 m/s 757 mmHg 68%
    19:00 +30°C° 1,1 mm 2 m/s 758 mmHg 73%
    20:00 +30°C° 0,7 mm 2 m/s 758 mmHg 73%
    21:00 +30°C° 0,7 mm 2 m/s 759 mmHg 73%
    22:00 +29°C° 0,7 mm 2 m/s 759 mmHg 74%
    23:00 +29°C° 0,8 mm 2 m/s 759 mmHg 75%

    Mâine, 24 Octombrie, Marţi

    Timp Temperatura Precipitaţii Vânt Presiune Umiditate
    00:00 +29°C° 0,8 mm 2 m/s 758 mmHg 77%
    01:00 +29°C° 0,8 mm 2 m/s 757 mmHg 78%
    02:00 +28°C° 0,4 mm 2 m/s 757 mmHg 80%
    03:00 +28°C° 0,4 mm 2 m/s 757 mmHg 81%
    04:00 +28°C° 0,4 mm 1 m/s 757 mmHg 83%
    05:00 +28°C° 0,2 mm 1 m/s 757 mmHg 82%
    06:00 +28°C° 0,2 mm 1 m/s 758 mmHg 81%
    07:00 +28°C° 0,2 mm 1 m/s 758 mmHg 80%
    08:00 +30°C° 0,1 mm 1 m/s 759 mmHg 74%
    09:00 +31°C° 0,1 mm 2 m/s 759 mmHg 68%
    10:00 +34°C° 0,1 mm 2 m/s 759 mmHg 62%
    11:00 +35°C° 0,1 mm 3 m/s 758 mmHg 60%
    12:00 +35°C° 0,1 mm 3 m/s 758 mmHg 57%
    13:00 +36°C° 0,1 mm 3 m/s 758 mmHg 55%
    14:00 +35°C° 0,2 mm 3 m/s 757 mmHg 58%
    15:00 +34°C° 0,2 mm 3 m/s 757 mmHg 62%
    16:00 +33°C° 0,2 mm 3 m/s 757 mmHg 65%
    17:00 +31°C° 0,5 mm 3 m/s 757 mmHg 70%
    18:00 +30°C° 0,5 mm 3 m/s 758 mmHg 75%
    19:00 +29°C° 0,5 mm 2 m/s 758 mmHg 80%
    20:00 +29°C° 0,3 mm 2 m/s 759 mmHg 79%
    21:00 +29°C° 0,3 mm 2 m/s 759 mmHg 78%
    22:00 +29°C° 0,3 mm 2 m/s 760 mmHg 78%
    23:00 +29°C° 0 mm 2 m/s 759 mmHg 79%

    Poimâine, 25 Octombrie, Miercuri

    Timp Temperatura Precipitaţii Vânt Presiune Umiditate
    00:00 +29°C° 0 mm 2 m/s 759 mmHg 80%
    01:00 +28°C° 0 mm 2 m/s 758 mmHg 81%
    02:00 +28°C° 0 mm 2 m/s 758 mmHg 82%
    03:00 +28°C° 0 mm 2 m/s 758 mmHg 83%
    04:00 +28°C° 0 mm 1 m/s 758 mmHg 84%
    05:00 +28°C° 0 mm 1 m/s 758 mmHg 82%
    06:00 +28°C° 0 mm 1 m/s 758 mmHg 81%
    07:00 +28°C° 0 mm 1 m/s 759 mmHg 79%
    08:00 +31°C° 0 mm 1 m/s 759 mmHg 70%
    09:00 +33°C° 0 mm 1 m/s 759 mmHg 60%
    10:00 +36°C° 0 mm 2 m/s 759 mmHg 51%
    11:00 +36°C° 0 mm 3 m/s 758 mmHg 49%
    12:00 +37°C° 0 mm 4 m/s 757 mmHg 47%
    13:00 +38°C° 0 mm 4 m/s 757 mmHg 46%
    14:00 +37°C° 0 mm 4 m/s 756 mmHg 50%
    15:00 +36°C° 0 mm 4 m/s 756 mmHg 54%
    16:00 +35°C° 0 mm 4 m/s 756 mmHg 58%
    17:00 +33°C° 0 mm 4 m/s 756 mmHg 63%
    18:00 +31°C° 0 mm 3 m/s 757 mmHg 69%
    19:00 +29°C° 0 mm 3 m/s 758 mmHg 75%
    20:00 +29°C° 0 mm 3 m/s 758 mmHg 75%
    21:00 +29°C° 0 mm 2 m/s 759 mmHg 75%
    22:00 +28°C° 0 mm 2 m/s 759 mmHg 76%
    23:00 +28°C° 0 mm 2 m/s 759 mmHg 77%

    26 Octombrie, Joi

    Timp Temperatura Precipitaţii Vânt Presiune Umiditate
    00:00 +28°C° 0 mm 2 m/s 758 mmHg 78%
    01:00 +28°C° 0 mm 2 m/s 758 mmHg 80%
    02:00 +27°C° 0 mm 2 m/s 758 mmHg 81%
    03:00 +27°C° 0 mm 1 m/s 758 mmHg 83%
    04:00 +27°C° 0 mm 1 m/s 758 mmHg 85%
    05:00 +27°C° 0 mm 1 m/s 758 mmHg 84%
    06:00 +27°C° 0 mm 1 m/s 759 mmHg 82%
    07:00 +28°C° 0 mm 1 m/s 759 mmHg 80%
    08:00 +30°C° 0 mm 1 m/s 759 mmHg 72%
    09:00 +31°C° 0 mm 2 m/s 759 mmHg 64%
    10:00 +34°C° 0 mm 2 m/s 759 mmHg 57%
    11:00 +35°C° 0 mm 3 m/s 758 mmHg 54%
    12:00 +36°C° 0 mm 3 m/s 758 mmHg 52%
    13:00 +36°C° 0 mm 4 m/s 757 mmHg 50%
    14:00 +35°C° 0 mm 4 m/s 757 mmHg 53%
    15:00 +35°C° 0 mm 4 m/s 756 mmHg 56%
    16:00 +34°C° 0 mm 4 m/s 756 mmHg 58%
    17:00 +32°C° 0 mm 4 m/s 757 mmHg 64%
    18:00 +30°C° 0 mm 3 m/s 757 mmHg 69%
    19:00 +28°C° 0 mm 3 m/s 758 mmHg 75%
    20:00 +28°C° 0 mm 2 m/s 758 mmHg 76%
    21:00 +28°C° 0 mm 2 m/s 759 mmHg 77%
    22:00 +28°C° 0 mm 1 m/s 759 mmHg 78%
    23:00 +27°C° 0 mm 1 m/s 759 mmHg 78%

    27 Octombrie, Vineri

    Timp Temperatura Precipitaţii Vânt Presiune Umiditate
    00:00 +27°C° 0 mm 2 m/s 758 mmHg 79%
    01:00 +27°C° 0 mm 2 m/s 758 mmHg 80%
    02:00 +27°C° 0 mm 2 m/s 758 mmHg 81%
    03:00 +27°C° 0 mm 2 m/s 757 mmHg 81%
    04:00 +27°C° 0 mm 2 m/s 757 mmHg 82%
    05:00 +27°C° 0 mm 1 m/s 758 mmHg 80%
    06:00 +27°C° 0 mm 1 m/s 758 mmHg 79%
    07:00 +28°C° 0 mm 1 m/s 759 mmHg 77%
    08:00 +29°C° 0 mm 1 m/s 758 mmHg 70%
    09:00 +31°C° 0 mm 2 m/s 758 mmHg 62%
    10:00 +34°C° 0 mm 2 m/s 758 mmHg 54%
    11:00 +35°C° 0 mm 3 m/s 757 mmHg 52%
    12:00 +35°C° 0 mm 3 m/s 757 mmHg 50%
    13:00 +36°C° 0 mm 4 m/s 756 mmHg 48%
    14:00 +35°C° 0 mm 4 m/s 756 mmHg 50%
    15:00 +34°C° 0 mm 4 m/s 756 mmHg 53%
    16:00 +34°C° 0 mm 4 m/s 755 mmHg 55%
    17:00 +32°C° 0 mm 4 m/s 756 mmHg 61%
    18:00 +30°C° 0 mm 3 m/s 757 mmHg 67%
    19:00 +28°C° 0 mm 3 m/s 757 mmHg 73%
    20:00 +28°C° 0 mm 3 m/s 758 mmHg 74%
    21:00 +27°C° 0 mm 2 m/s 758 mmHg 75%
    22:00 +27°C° 0 mm 1 m/s 759 mmHg 76%
    23:00 +27°C° 0,1 mm 1 m/s 758 mmHg 77%

    28 Octombrie, Sâmbătă

    Timp Temperatura Precipitaţii Vânt Presiune Umiditate
    00:00 +27°C° 0,1 mm 1 m/s 758 mmHg 79%
    01:00 +26°C° 0,1 mm 1 m/s 758 mmHg 81%
    02:00 +26°C° 0,1 mm 1 m/s 757 mmHg 82%
    03:00 +26°C° 0,1 mm 1 m/s 757 mmHg 84%
    04:00 +26°C° 0,1 mm 1 m/s 757 mmHg 86%
    05:00 +26°C° 0 mm 1 m/s 757 mmHg 84%
    06:00 +27°C° 0 mm 1 m/s 758 mmHg 82%
    07:00 +27°C° 0 mm 1 m/s 758 mmHg 80%
    08:00 +29°C° 0 mm 1 m/s 758 mmHg 71%
    09:00 +31°C° 0 mm 2 m/s 758 mmHg 62%
    10:00 +34°C° 0 mm 2 m/s 757 mmHg 53%
    11:00 +35°C° 0 mm 3 m/s 757 mmHg 52%
    12:00 +35°C° 0 mm 4 m/s 756 mmHg 51%
    13:00 +36°C° 0 mm 4 m/s 755 mmHg 50%
    14:00 +35°C° 0 mm 4 m/s 755 mmHg 52%
    15:00 +34°C° 0 mm 4 m/s 755 mmHg 55%
    16:00 +33°C° 0 mm 4 m/s 755 mmHg 57%
    17:00 +32°C° 0,2 mm 4 m/s 755 mmHg 64%
    18:00 +29°C° 0,2 mm 3 m/s 756 mmHg 70%
    19:00 +27°C° 0,2 mm 3 m/s 757 mmHg 76%
    20:00 +27°C° 0,3 mm 2 m/s 757 mmHg 77%
    21:00 +27°C° 0,3 mm 2 m/s 757 mmHg 78%
    22:00 +27°C° 0,3 mm 2 m/s 757 mmHg 79%
    23:00 +26°C° 0,2 mm 2 m/s 757 mmHg 80%

    29 Octombrie, Duminică

    Timp Temperatura Precipitaţii Vânt Presiune Umiditate
    00:00 +26°C° 0,2 mm 1 m/s 757 mmHg 80%
    01:00 +26°C° 0,2 mm 1 m/s 756 mmHg 81%
    02:00 +26°C° 0,2 mm 1 m/s 756 mmHg 82%
    03:00 +26°C° 0,2 mm 1 m/s 756 mmHg 84%
    04:00 +26°C° 0,2 mm 1 m/s 756 mmHg 85%
    05:00 +26°C° 0,1 mm 1 m/s 757 mmHg 84%
    06:00 +26°C° 0,1 mm 1 m/s 757 mmHg 83%
    07:00 +27°C° 0,1 mm 1 m/s 758 mmHg 82%
    08:00 +29°C° 0 mm 1 m/s 758 mmHg 73%
    09:00 +31°C° 0 mm 2 m/s 757 mmHg 64%
    10:00 +34°C° 0 mm 2 m/s 757 mmHg 54%
    11:00 +35°C° 0 mm 3 m/s 757 mmHg 52%
    12:00 +35°C° 0 mm 3 m/s 756 mmHg 51%
    13:00 +36°C° 0 mm 4 m/s 755 mmHg 49%
    14:00 +35°C° 0 mm 4 m/s 755 mmHg 52%
    15:00 +34°C° 0 mm 4 m/s 755 mmHg 55%
    16:00 +33°C° 0 mm 4 m/s 755 mmHg 57%
    17:00 +32°C° 0 mm 4 m/s 755 mmHg 63%
    18:00 +29°C° 0 mm 3 m/s 756 mmHg 68%
    19:00 +28°C° 0 mm 3 m/s 756 mmHg 74%
    20:00 +28°C° 0,1 mm 3 m/s 757 mmHg 74%
    21:00 +28°C° 0,1 mm 2 m/s 757 mmHg 74%
    22:00 +28°C° 0,1 mm 2 m/s 758 mmHg 74%
    23:00 +28°C° 0,2 mm 2 m/s 757 mmHg 74%
    Arată mai mult